User: anonymous   Login
Location: Montreal
(45.5000°N, 73.5833°W)
Time: 06:16:28
(UTC-04:00)
Language:

ISS - Orbit

View from above orbital plane
View from above orbital plane
View from above satellite
View from above satellite

Ground track
Ground track

The orbit data is extracted from the following two-line orbital elements,

1 25544U 98067A   17295.41654521  .00016717  00000-0  10270-3 0  9021
2 25544  51.6398 124.0772 0005168  41.4959 318.6586 15.54263929  1531
Epoch (UTC): 22 October 2017 09:59:49
Eccentricity: 0.0005168
inclination: 51.6398°
perigee height: 401 km
apogee height: 408 km
right ascension of ascending node: 124.0772°
argument of perigee: 41.4959°
revolutions per day: 15.54263929
mean anomaly at epoch: 318.6586°
orbit number at epoch: 153

The dashed part of the orbit path shows where the satellite is in the earth's shadow,  

DLR